Location: Namasale
(1.5000°N, 32.6167°E)
Time: 16:57:46
(UTC+00:00)

Courier 1B - Pass Details

Date: 25 April 2021
Orbit: 962 x 1209 km, 28.3° (Epoch: 18 May)

Event Time Altitude Azimuth Distance (km) Brightness Sun altitude
Rises 14:56:37 0° 311° (NW) 3,625 11.7 12.7°
Reaches altitude 10° 14:59:21 10° 318° (NW) 2,683 10.9 12.0°
Maximum altitude 15:05:30 45° 30° (NNE) 1,293 8.2 10.6°
Drops below altitude 10° 15:11:50 10° 101° (E) 2,772 9.3 9.0°
Sets 15:14:42 0° 107° (ESE) 3,758 9.9 8.3°
